sat.trackr.live / text

‹ back to catalog

ICEYE-X31

NORAD 58288 · 2023-174AJ

PAYLOAD ACTIVE UNKNOWN

§ Identity

Operator
Country
FIN
Launch date
2023-11-11
Launch site
AFWTR
Launch vehicle
Mass (kg)
RCS (m²)

External: N2YO · Heavens-Above · Gunter

§ Orbital elements

Epoch: 2026-09-21T23:01:31.328832Z

Period
93.68 min
Inclination
97.3706°
Eccentricity
0.0001689
Mean motion
15.37147929 rev/d
Perigee alt
453.4 km
Apogee alt
455.7 km
Semi-major
6,832.7 km
B*
3.4433e-4
RAAN
340.8295°
Arg perigee
10.5575°
Mean anomaly
349.5704°
Rev number
15,960

§ Raw data

ICEYE-X311 58288U 23174AJ  26264.95939038  .00012446  00000+0  34433-3 0  99902 58288  97.3706 340.8295 0001689  10.5575 349.5704 15.37147929159604

JSON: /api/v1/satellites/58288 · /tle

For live sub-satellite position, see the globe view (requires WebGL).

§ Visibility from observer

Set your observer location to see the next 7 days of passes ≥ 10°. The values pass through the URL so the page stays shareable.

No JS? Fill the form by hand. The geolocation button needs JavaScript.

§ Radio — SatNOGS DB

ModeDescriptionDownlinkUplink
FM S-band telemetry 2.246 GHz
BPSK S-band telemetry 2.264 GHz

2 transmitters · refreshed weekly from db.satnogs.org